Weather History for Covington, KY

Change the Weather History Date:

Tuesday, April 8, 2014

  Actual Average Record
Temperature  
Mean Temperature 52 °F 52 °F  
Max Temperature 60 °F 62 °F 80 °F (2001)
Min Temperature 43 °F 41 °F 20 °F (1972)
Degree Days  
Heating Degree Days 13 14  
Month to date heating degree days 98 119  
Since 1 July heating degree days 5124 4612  
Cooling Degree Days 0 0  
Month to date cooling degree days 0 0  
Year to date cooling degree days 0 0  
Growing Degree Days 2 (Base 50)    
Moisture  
Dew Point 42 °F    
Average Humidity 75    
Maximum Humidity 96    
Minimum Humidity 53    
Precipitation  
Precipitation 0.02 in 0.14 in 2.11 in (1998)
Month to date precipitation 4.19 1.01  
Year to date precipitation 12.14 10.78  
Snow  
Snow 0.00 in 0.10 in 4.20 in (1916)
Month to date snowfall 0.0 0.3  
Since 1 July snowfall 46.9 21.9  
Snow Depth 0.00 in    
Sea Level Pressure  
Sea Level Pressure 29.72 in    
Wind  
Wind Speed 9 mph (West)    
Max Wind Speed 22 mph    
Max Gust Speed 26 mph    
Visibility 8 miles    
Events Rain    
T = Trace of Precipitation, MM = Missing Value Source: NWS Daily Summary

Daily Weather History Graph

Daily Weather History Graph

Search for Another Location

Airport:

Trip Planner

Search our weather history database for the weather conditions in past years. The results will help you decide how hot, cold, wet, or windy it might be!

Date:

Astronomy

Apr. 08, 2014 Rise Set
Actual Time 7:12 AM EDT 8:09 PM EDT
Civil Twilight 6:45 AM EDT 8:36 PM EDT
Nautical Twilight 6:12 AM EDT 9:08 PM EDT
Astronomical Twilight 5:39 AM EDT 9:42 PM EDT
Moon 2:04 PM EDT (4/8) 3:21 AM EDT (4/8)
Length of Visible Light 13h 51m
Length of Day
12h 56m
Waxing Gibbous, 62% of the Moon is Illuminated
Apr 8
Waxing Gibbous
Apr 15
Full
Apr 22
Last Quarter
Apr 29
New
May 6
First Quarter

Hourly Weather History & Observations

Time (EDT) Temp. Windchill Dew Point Humidity Pressure Visibility Wind Dir Wind Speed Gust Speed Precip Events Conditions
12:37 AM 44.6 °F 37.4 °F 42.8 °F 93% 29.57 in 2.0 mi West 16.1 mph 23.0 mph 0.01 in   Overcast
12:40 AM 44.6 °F 37.8 °F 42.8 °F 93% 29.57 in 6.0 mi West 15.0 mph 23.0 mph 0.01 in   Overcast
12:52 AM 44.1 °F 36.8 °F 42.1 °F 93% 29.58 in 6.0 mi West 16.1 mph - 0.01 in   Light Drizzle
1:52 AM 44.1 °F 35.9 °F 41.0 °F 89% 29.62 in 7.0 mi West 19.6 mph 25.3 mph 0.00 in   Overcast
2:52 AM 43.0 °F 35.7 °F 41.0 °F 93% 29.65 in 10.0 mi West 15.0 mph - N/A   Overcast
3:25 AM 42.8 °F 35.8 °F 41.0 °F 93% 29.65 in 9.0 mi West 13.8 mph - 0.00 in   Overcast
3:52 AM 43.0 °F 37.7 °F 41.0 °F 93% 29.66 in 10.0 mi WSW 9.2 mph - 0.00 in   Overcast
4:19 AM 42.8 °F 38.6 °F 41.0 °F 93% 29.68 in 10.0 mi WSW 6.9 mph - N/A   Overcast
4:52 AM 44.1 °F 39.5 °F 41.0 °F 89% 29.68 in 9.0 mi West 8.1 mph - N/A   Overcast
5:52 AM 44.1 °F 40.1 °F 41.0 °F 89% 29.69 in 9.0 mi WSW 6.9 mph - N/A   Overcast
6:16 AM 44.6 °F 40.7 °F 41.0 °F 87% 29.69 in 8.0 mi WSW 6.9 mph - N/A   Overcast
6:52 AM 43.0 °F 38.8 °F 41.0 °F 93% 29.70 in 8.0 mi SW 6.9 mph - N/A   Overcast
7:22 AM 42.8 °F 38.0 °F 39.2 °F 87% 29.71 in 8.0 mi WSW 8.1 mph - N/A   Mostly Cloudy
7:52 AM 43.0 °F 37.7 °F 39.9 °F 89% 29.73 in 6.0 mi WSW 9.2 mph - N/A   Mostly Cloudy
8:44 AM 44.6 °F 39.7 °F 41.0 °F 87% 29.74 in 7.0 mi WSW 9.2 mph - N/A   Scattered Clouds
8:52 AM 44.6 °F 40.2 °F 41.0 °F 87% 29.74 in 7.0 mi WSW 8.1 mph - N/A   Scattered Clouds
8:59 AM 44.6 °F 38.8 °F 41.0 °F 87% 29.74 in 7.0 mi SW 11.5 mph - N/A   Partly Cloudy
9:52 AM 48.0 °F - 42.1 °F 80% 29.75 in 8.0 mi SW 9.2 mph - N/A   Partly Cloudy
10:52 AM 50.0 °F - 42.1 °F 74% 29.76 in 8.0 mi SSW 8.1 mph - N/A   Scattered Clouds
11:37 AM 51.8 °F - 42.8 °F 71% 29.76 in 8.0 mi WSW 4.6 mph - N/A   Mostly Cloudy
11:52 AM 51.1 °F - 43.0 °F 74% 29.76 in 8.0 mi SSW 3.5 mph - N/A   Mostly Cloudy
12:52 PM 54.0 °F - 44.1 °F 69% 29.75 in 9.0 mi West 8.1 mph - N/A   Mostly Cloudy
1:39 PM 55.4 °F - 44.6 °F 67% 29.75 in 9.0 mi WSW 9.2 mph - N/A   Mostly Cloudy
1:52 PM 55.9 °F - 44.1 °F 64% 29.75 in 9.0 mi WNW 8.1 mph - N/A   Mostly Cloudy
2:52 PM 59.0 °F - 44.1 °F 58% 29.73 in 9.0 mi WNW 8.1 mph - N/A   Mostly Cloudy
3:52 PM 57.9 °F - 42.1 °F 56% 29.72 in 10.0 mi West 10.4 mph - N/A   Overcast
4:52 PM 57.9 °F - 42.1 °F 56% 29.71 in 10.0 mi West 4.6 mph - N/A   Overcast
5:52 PM 59.0 °F - 43.0 °F 55% 29.71 in 10.0 mi West 8.1 mph - N/A   Mostly Cloudy
6:37 PM 53.6 °F - 39.2 °F 58% 29.73 in 8.0 mi NNE 5.8 mph 24.2 mph 0.01 in Rain Small Hail
6:40 PM 53.6 °F - 39.2 °F 58% 29.74 in 9.0 mi North 5.8 mph 24.2 mph 0.02 in Rain Light Rain
6:52 PM 55.0 °F - 42.1 °F 62% 29.74 in 10.0 mi North 4.6 mph - 0.02 in   Mostly Cloudy
7:52 PM 53.1 °F - 44.1 °F 71% 29.77 in 10.0 mi NNW 12.7 mph - 0.00 in   Overcast
8:52 PM 51.1 °F - 42.1 °F 71% 29.79 in 10.0 mi NW 10.4 mph - N/A   Mostly Cloudy
9:52 PM 51.1 °F - 42.1 °F 71% 29.82 in 10.0 mi NW 8.1 mph - N/A   Overcast
10:52 PM 48.9 °F - 41.0 °F 74% 29.83 in 10.0 mi NW 6.9 mph - N/A   Partly Cloudy
11:52 PM 46.9 °F - 41.0 °F 80% 29.84 in 10.0 mi NW 8.1 mph - N/A   Scattered Clouds